Вернуться в каталог

CZ-6A DEB

АктивенPO
NORAD 54288·DEBRIS·🇨🇳 China

Запущен Nov 11, 2022 с Taiyuan Satellite Launch Center

Loading…

Ближайшие Пролёты (ближайшие 24 часа)

TLE

СвежийSource: Space-Track

Эпоха: Sep 13, 2026, 18:11 UTC

1 54288U 22151AF  26256.75778145  .00001973  00000-0  34474-3 0  9998
2 54288  98.6636 348.9926 0129934 311.9175  47.1003 14.63846303203540

Отслеживайте CZ-6A DEB в реальном времени с AllMySat

Download on the App Store